Time,TemperatureF,DewpointF,PressureIn,WindDirection,WindDirectionDegrees,WindSpeedMPH,WindSpeedGustMPH,Humidity,HourlyPrecipIn,Conditions,Clouds,dailyrainin,SoftwareType,DateUTC
2013-10-28 00:02:00,56.5,51.0,30.16,West,270,0.0,0.2,82,0.00,,,0.00,WUHU216HW,2013-10-28 04:02:00,
2013-10-28 00:07:00,56.5,51.0,30.16,West,270,0.0,0.0,82,0.00,,,0.00,WUHU216HW,2013-10-28 04:07:00,
2013-10-28 00:12:00,56.3,50.9,30.15,West,270,0.0,0.0,82,0.00,,,0.00,WUHU216HW,2013-10-28 04:12:00,
2013-10-28 00:18:00,56.3,50.9,30.15,West,270,0.0,0.0,82,0.00,,,0.00,WUHU216HW,2013-10-28 04:18:00,
2013-10-28 00:23:00,56.2,50.7,30.15,West,270,0.0,0.0,82,0.00,,,0.00,WUHU216HW,2013-10-28 04:23:00,
2013-10-28 00:28:00,56.0,50.5,30.15,West,270,0.0,0.0,82,0.00,,,0.00,WUHU216HW,2013-10-28 04:28:00,
2013-10-28 00:33:00,55.8,50.7,30.15,NNW,338,0.0,0.4,83,0.00,,,0.00,WUHU216HW,2013-10-28 04:33:00,
2013-10-28 00:38:00,55.8,50.7,30.15,NNW,338,0.0,0.4,83,0.00,,,0.00,WUHU216HW,2013-10-28 04:38:00,
2013-10-28 00:43:00,56.0,50.5,30.15,NNW,338,0.0,0.0,82,0.00,,,0.00,WUHU216HW,2013-10-28 04:43:00,
2013-10-28 00:48:00,55.8,50.7,30.15,NNW,338,0.0,0.0,83,0.00,,,0.00,WUHU216HW,2013-10-28 04:48:00,
2013-10-28 00:53:00,55.8,50.7,30.15,NNW,338,0.0,0.0,83,0.00,,,0.00,WUHU216HW,2013-10-28 04:53:00,
2013-10-28 00:58:00,55.8,50.7,30.15,NNW,338,0.0,0.0,83,0.00,,,0.00,WUHU216HW,2013-10-28 04:58:00,
2013-10-28 01:03:00,55.6,50.5,30.15,NNW,338,0.0,0.0,83,0.00,,,0.00,WUHU216HW,2013-10-28 05:03:00,
2013-10-28 01:08:00,55.6,50.5,30.14,NNW,338,0.0,0.0,83,0.00,,,0.00,WUHU216HW,2013-10-28 05:08:00,
2013-10-28 01:13:00,55.6,50.5,30.14,NNW,338,0.0,0.0,83,0.00,,,0.00,WUHU216HW,2013-10-28 05:13:00,
2013-10-28 01:18:00,55.6,50.5,30.14,NNW,338,0.0,0.0,83,0.00,,,0.00,WUHU216HW,2013-10-28 05:18:00,
2013-10-28 01:23:00,55.4,50.3,30.14,NNW,338,0.0,0.0,83,0.00,,,0.00,WUHU216HW,2013-10-28 05:23:00,
2013-10-28 01:28:00,55.4,50.3,30.14,NNW,338,0.0,0.0,83,0.00,,,0.00,WUHU216HW,2013-10-28 05:28:00,
2013-10-28 01:33:00,55.4,50.3,30.14,NNW,338,0.0,0.0,83,0.00,,,0.00,WUHU216HW,2013-10-28 05:33:00,
2013-10-28 01:38:00,55.3,50.1,30.14,NNW,338,0.0,0.0,83,0.00,,,0.00,WUHU216HW,2013-10-28 05:38:00,
2013-10-28 01:43:00,55.3,50.5,30.13,NNW,338,0.0,0.0,84,0.00,,,0.00,WUHU216HW,2013-10-28 05:43:00,
2013-10-28 01:48:00,55.1,50.3,30.13,NNW,338,0.0,0.0,84,0.00,,,0.00,WUHU216HW,2013-10-28 05:48:00,
2013-10-28 01:53:00,54.9,50.1,30.13,NNW,338,0.0,0.0,84,0.00,,,0.00,WUHU216HW,2013-10-28 05:53:00,
2013-10-28 01:58:00,54.7,50.0,30.13,NNW,338,0.0,0.0,84,0.00,,,0.00,WUHU216HW,2013-10-28 05:58:00,
2013-10-28 02:03:00,54.9,50.1,30.13,NNW,338,0.0,0.0,84,0.00,,,0.00,WUHU216HW,2013-10-28 06:03:00,
2013-10-28 02:08:00,54.9,50.1,30.13,NNW,338,0.0,0.0,84,0.00,,,0.00,WUHU216HW,2013-10-28 06:08:00,
2013-10-28 02:13:00,54.9,50.1,30.13,NNW,338,0.0,0.0,84,0.00,,,0.00,WUHU216HW,2013-10-28 06:13:00,
2013-10-28 02:18:00,54.7,50.0,30.13,NNW,338,0.0,0.0,84,0.00,,,0.00,WUHU216HW,2013-10-28 06:18:00,
2013-10-28 02:23:00,54.7,50.0,30.13,NNW,338,0.0,0.0,84,0.00,,,0.00,WUHU216HW,2013-10-28 06:23:00,
2013-10-28 02:28:00,54.5,50.1,30.13,NNW,338,0.0,0.0,85,0.00,,,0.00,WUHU216HW,2013-10-28 06:28:00,
2013-10-28 02:33:00,54.4,50.0,30.12,NNW,338,0.0,0.0,85,0.00,,,0.00,WUHU216HW,2013-10-28 06:33:00,
2013-10-28 02:38:00,54.4,50.0,30.12,NNW,338,0.0,0.0,85,0.00,,,0.00,WUHU216HW,2013-10-28 06:38:00,
2013-10-28 02:43:00,54.4,50.0,30.13,West,270,0.0,0.0,85,0.00,,,0.00,WUHU216HW,2013-10-28 06:43:00,
2013-10-28 02:48:00,54.4,50.2,30.13,West,270,0.0,0.9,86,0.00,,,0.00,WUHU216HW,2013-10-28 06:48:00,
2013-10-28 02:53:00,54.4,50.2,30.13,NW,315,0.0,0.9,86,0.00,,,0.00,WUHU216HW,2013-10-28 06:53:00,
2013-10-28 02:58:00,54.2,50.0,30.13,NW,315,0.0,0.4,86,0.00,,,0.00,WUHU216HW,2013-10-28 06:58:00,
2013-10-28 03:03:00,54.0,49.9,30.13,NW,315,0.0,0.4,86,0.00,,,0.00,WUHU216HW,2013-10-28 07:03:00,
2013-10-28 03:08:00,54.2,50.0,30.13,NW,315,0.0,0.0,86,0.00,,,0.00,WUHU216HW,2013-10-28 07:08:00,
2013-10-28 03:13:00,54.2,50.0,30.13,NW,315,0.0,0.0,86,0.00,,,0.00,WUHU216HW,2013-10-28 07:13:00,
2013-10-28 03:18:00,54.2,50.0,30.13,NW,315,0.0,0.0,86,0.00,,,0.00,WUHU216HW,2013-10-28 07:18:00,
2013-10-28 03:23:00,54.2,50.0,30.13,NW,315,0.0,0.0,86,0.00,,,0.00,WUHU216HW,2013-10-28 07:23:00,
2013-10-28 03:28:00,54.2,50.0,30.13,NW,315,0.0,0.0,86,0.00,,,0.00,WUHU216HW,2013-10-28 07:28:00,
2013-10-28 03:33:00,54.2,50.0,30.13,NW,315,0.0,0.0,86,0.00,,,0.00,WUHU216HW,2013-10-28 07:33:00,
2013-10-28 03:38:00,54.4,50.2,30.13,NW,315,0.0,0.0,86,0.00,,,0.00,WUHU216HW,2013-10-28 07:38:00,
2013-10-28 03:43:00,54.4,50.2,30.13,NW,315,0.0,0.0,86,0.00,,,0.00,WUHU216HW,2013-10-28 07:43:00,
2013-10-28 03:48:00,54.2,50.0,30.13,NW,315,0.0,0.0,86,0.00,,,0.00,WUHU216HW,2013-10-28 07:48:00,
2013-10-28 03:53:00,54.2,50.0,30.13,NW,315,0.0,0.0,86,0.00,,,0.00,WUHU216HW,2013-10-28 07:53:00,
2013-10-28 03:58:00,54.2,50.0,30.13,NW,315,0.0,0.0,86,0.00,,,0.00,WUHU216HW,2013-10-28 07:58:00,
2013-10-28 04:03:00,54.0,49.9,30.13,NW,315,0.0,0.0,86,0.00,,,0.00,WUHU216HW,2013-10-28 08:03:00,
2013-10-28 04:08:00,54.0,49.9,30.13,NW,315,0.0,0.0,86,0.00,,,0.00,WUHU216HW,2013-10-28 08:08:00,
2013-10-28 04:13:00,54.0,49.9,30.14,West,270,0.0,0.4,86,0.00,,,0.00,WUHU216HW,2013-10-28 08:13:00,
2013-10-28 04:18:00,54.2,50.0,30.13,NNW,338,0.4,0.9,86,0.00,,,0.00,WUHU216HW,2013-10-28 08:18:00,
2013-10-28 04:23:00,54.0,49.9,30.13,NNE,23,0.0,0.9,86,0.00,,,0.00,WUHU216HW,2013-10-28 08:23:00,
2013-10-28 04:28:00,54.0,49.9,30.13,NNE,23,0.2,0.7,86,0.00,,,0.00,WUHU216HW,2013-10-28 08:28:00,
2013-10-28 04:33:00,53.8,49.7,30.12,NNE,23,0.4,0.7,86,0.00,,,0.00,WUHU216HW,2013-10-28 08:33:00,
2013-10-28 04:38:00,53.8,49.7,30.12,NNE,23,0.0,0.7,86,0.00,,,0.00,WUHU216HW,2013-10-28 08:38:00,
2013-10-28 04:43:00,53.8,49.7,30.12,NNE,23,0.0,0.0,86,0.00,,,0.00,WUHU216HW,2013-10-28 08:43:00,
2013-10-28 04:48:00,54.0,49.9,30.13,NNE,23,0.0,0.0,86,0.00,,,0.00,WUHU216HW,2013-10-28 08:48:00,
2013-10-28 04:53:00,53.8,49.7,30.13,NNE,23,0.0,0.0,86,0.00,,,0.00,WUHU216HW,2013-10-28 08:53:00,
2013-10-28 04:58:00,53.8,49.7,30.13,NNE,23,0.0,0.0,86,0.00,,,0.00,WUHU216HW,2013-10-28 08:58:00,
2013-10-28 05:03:00,53.8,49.7,30.13,NNE,23,0.0,0.0,86,0.00,,,0.00,WUHU216HW,2013-10-28 09:03:00,
2013-10-28 05:08:00,53.8,49.7,30.13,NNE,23,0.0,0.2,86,0.00,,,0.00,WUHU216HW,2013-10-28 09:08:00,
2013-10-28 05:13:00,53.6,49.9,30.14,NNE,23,0.0,0.7,87,0.00,,,0.00,WUHU216HW,2013-10-28 09:13:00,
2013-10-28 05:18:00,53.6,49.9,30.14,NNE,23,0.0,0.7,87,0.00,,,0.00,WUHU216HW,2013-10-28 09:18:00,
2013-10-28 05:23:00,53.6,49.9,30.14,NNE,23,0.0,0.0,87,0.00,,,0.00,WUHU216HW,2013-10-28 09:23:00,
2013-10-28 05:28:00,53.5,49.7,30.14,ESE,113,0.0,0.4,87,0.00,,,0.00,WUHU216HW,2013-10-28 09:28:00,
2013-10-28 05:33:00,53.5,49.7,30.14,ESE,113,0.0,0.4,87,0.00,,,0.00,WUHU216HW,2013-10-28 09:33:00,
2013-10-28 05:38:00,53.3,49.5,30.14,ENE,68,0.0,0.0,87,0.00,,,0.00,WUHU216HW,2013-10-28 09:38:00,
2013-10-28 05:43:00,53.1,49.6,30.14,NNE,23,0.9,0.9,88,0.00,,,0.00,WUHU216HW,2013-10-28 09:43:00,
2013-10-28 05:48:00,53.1,49.6,30.14,NNE,23,1.1,1.1,88,0.00,,,0.00,WUHU216HW,2013-10-28 09:48:00,
2013-10-28 05:53:00,52.9,49.4,30.14,NNE,23,0.0,1.1,88,0.00,,,0.00,WUHU216HW,2013-10-28 09:53:00,
2013-10-28 05:58:00,52.9,49.4,30.15,NNW,338,0.0,0.9,88,0.00,,,0.00,WUHU216HW,2013-10-28 09:58:00,
2013-10-28 06:03:00,53.1,49.6,30.15,NNW,338,0.0,0.0,88,0.00,,,0.00,WUHU216HW,2013-10-28 10:03:00,
2013-10-28 06:08:00,53.1,49.6,30.15,NW,315,0.4,0.4,88,0.00,,,0.00,WUHU216HW,2013-10-28 10:08:00,
2013-10-28 06:13:00,53.1,49.6,30.15,NW,315,0.0,0.4,88,0.00,,,0.00,WUHU216HW,2013-10-28 10:13:00,
2013-10-28 06:18:00,52.9,49.4,30.16,NW,315,0.0,0.4,88,0.00,,,0.00,WUHU216HW,2013-10-28 10:18:00,
2013-10-28 06:23:00,52.9,49.4,30.16,NW,315,0.0,0.0,88,0.00,,,0.00,WUHU216HW,2013-10-28 10:23:00,
2013-10-28 06:28:00,52.7,49.2,30.16,NW,315,0.0,0.0,88,0.00,,,0.00,WUHU216HW,2013-10-28 10:28:00,
2013-10-28 06:33:00,52.7,49.2,30.16,NW,315,0.0,0.0,88,0.00,,,0.00,WUHU216HW,2013-10-28 10:33:00,
2013-10-28 06:38:00,52.7,49.2,30.16,NW,315,0.0,0.0,88,0.00,,,0.00,WUHU216HW,2013-10-28 10:38:00,
2013-10-28 06:43:00,52.6,49.1,30.17,NW,315,0.0,0.0,88,0.00,,,0.00,WUHU216HW,2013-10-28 10:43:00,
2013-10-28 06:48:00,52.6,49.1,30.16,NW,315,0.0,0.0,88,0.00,,,0.00,WUHU216HW,2013-10-28 10:48:00,
2013-10-28 06:53:00,52.6,49.1,30.16,NW,315,0.0,0.0,88,0.00,,,0.00,WUHU216HW,2013-10-28 10:53:00,
2013-10-28 06:58:00,52.4,48.9,30.16,NW,315,0.0,0.0,88,0.00,,,0.00,WUHU216HW,2013-10-28 10:58:00,
2013-10-28 07:03:00,52.4,48.9,30.17,NW,315,0.0,0.0,88,0.00,,,0.00,WUHU216HW,2013-10-28 11:03:00,
2013-10-28 07:08:00,52.4,48.9,30.17,NW,315,0.0,0.0,88,0.00,,,0.00,WUHU216HW,2013-10-28 11:08:00,
2013-10-28 07:13:00,52.4,48.9,30.17,NW,315,0.0,0.0,88,0.00,,,0.00,WUHU216HW,2013-10-28 11:13:00,
2013-10-28 07:18:00,52.2,48.7,30.18,WNW,293,0.7,0.7,88,0.00,,,0.00,WUHU216HW,2013-10-28 11:18:00,
2013-10-28 07:23:00,52.4,48.9,30.18,WNW,293,0.0,0.7,88,0.00,,,0.00,WUHU216HW,2013-10-28 11:23:00,
2013-10-28 07:28:00,52.2,48.7,30.18,WNW,293,0.0,0.7,88,0.00,,,0.00,WUHU216HW,2013-10-28 11:28:00,
2013-10-28 07:33:00,51.8,48.3,30.18,WNW,293,0.0,0.0,88,0.00,,,0.00,WUHU216HW,2013-10-28 11:33:00,
2013-10-28 07:38:00,51.8,48.3,30.18,WNW,293,0.0,0.0,88,0.00,,,0.00,WUHU216HW,2013-10-28 11:38:00,
2013-10-28 07:43:00,51.8,48.3,30.18,WNW,293,0.0,0.0,88,0.00,,,0.00,WUHU216HW,2013-10-28 11:43:00,
2013-10-28 07:48:00,51.7,48.2,30.18,WNW,293,0.0,0.0,88,0.00,,,0.00,WUHU216HW,2013-10-28 11:48:00,
2013-10-28 07:53:00,51.7,48.2,30.18,WNW,293,0.0,0.0,88,0.00,,,0.00,WUHU216HW,2013-10-28 11:53:00,
2013-10-28 07:58:00,51.7,48.2,30.18,WNW,293,0.0,0.0,88,0.00,,,0.00,WUHU216HW,2013-10-28 11:58:00,
2013-10-28 08:03:00,51.7,48.2,30.19,WNW,293,0.0,0.0,88,0.00,,,0.00,WUHU216HW,2013-10-28 12:03:00,
2013-10-28 08:08:00,51.8,48.7,30.19,WNW,293,0.0,0.0,89,0.00,,,0.00,WUHU216HW,2013-10-28 12:08:00,
2013-10-28 08:13:00,52.2,49.1,30.19,WNW,293,0.0,0.0,89,0.00,,,0.00,WUHU216HW,2013-10-28 12:13:00,
2013-10-28 08:18:00,52.7,49.6,30.19,WNW,293,0.0,0.0,89,0.00,,,0.00,WUHU216HW,2013-10-28 12:18:00,
2013-10-28 08:23:00,53.5,50.3,30.19,WNW,293,0.0,0.0,89,0.00,,,0.00,WUHU216HW,2013-10-28 12:23:00,
2013-10-28 08:28:00,54.2,50.7,30.19,SSW,203,0.0,0.4,88,0.00,,,0.00,WUHU216HW,2013-10-28 12:28:00,
2013-10-28 08:33:00,54.5,51.0,30.20,SW,225,0.0,0.4,88,0.00,,,0.00,WUHU216HW,2013-10-28 12:33:00,
2013-10-28 08:38:00,55.1,51.6,30.20,SW,225,0.0,0.0,88,0.00,,,0.00,WUHU216HW,2013-10-28 12:38:00,
2013-10-28 08:43:00,55.3,51.4,30.20,SW,225,0.0,0.0,87,0.00,,,0.00,WUHU216HW,2013-10-28 12:43:00,
2013-10-28 08:48:00,55.4,51.6,30.20,SW,225,0.0,0.0,87,0.00,,,0.00,WUHU216HW,2013-10-28 12:48:00,
2013-10-28 08:53:00,55.4,51.6,30.20,SW,225,0.0,0.0,87,0.00,,,0.00,WUHU216HW,2013-10-28 12:53:00,
2013-10-28 08:58:00,55.4,51.6,30.21,NW,315,0.4,0.4,87,0.00,,,0.00,WUHU216HW,2013-10-28 12:58:00,
2013-10-28 09:03:00,55.4,51.6,30.21,NW,315,0.0,0.4,87,0.00,,,0.00,WUHU216HW,2013-10-28 13:03:00,
2013-10-28 09:08:00,55.6,51.8,30.21,NW,315,0.0,0.0,87,0.00,,,0.00,WUHU216HW,2013-10-28 13:08:00,
2013-10-28 09:13:00,56.0,52.1,30.21,NW,315,0.0,0.0,87,0.00,,,0.00,WUHU216HW,2013-10-28 13:13:00,
2013-10-28 09:18:00,56.5,53.0,30.22,WNW,293,0.4,0.4,88,0.00,,,0.00,WUHU216HW,2013-10-28 13:18:00,
2013-10-28 09:23:00,56.9,53.0,30.22,WNW,293,0.0,0.4,87,0.00,,,0.00,WUHU216HW,2013-10-28 13:23:00,
2013-10-28 09:28:00,57.6,53.7,30.21,WNW,293,0.0,0.4,87,0.00,,,0.00,WUHU216HW,2013-10-28 13:28:00,
2013-10-28 09:33:00,58.3,54.5,30.22,WNW,293,0.0,0.0,87,0.00,,,0.00,WUHU216HW,2013-10-28 13:33:00,
2013-10-28 09:38:00,59.4,55.3,30.22,North,0,0.2,1.1,86,0.00,,,0.00,WUHU216HW,2013-10-28 13:38:00,
2013-10-28 09:43:00,60.1,55.6,30.22,WSW,248,1.1,1.1,85,0.00,,,0.00,WUHU216HW,2013-10-28 13:43:00,
2013-10-28 09:48:00,60.8,55.7,30.22,West,270,0.0,1.1,83,0.00,,,0.00,WUHU216HW,2013-10-28 13:48:00,
2013-10-28 09:53:00,61.4,56.2,30.22,West,270,0.0,0.0,83,0.00,,,0.00,WUHU216HW,2013-10-28 13:53:00,
2013-10-28 09:58:00,62.3,56.7,30.22,North,0,0.2,1.1,82,0.00,,,0.00,WUHU216HW,2013-10-28 13:58:00,
2013-10-28 10:03:00,63.0,57.1,30.23,North,0,0.2,1.1,81,0.00,,,0.00,WUHU216HW,2013-10-28 14:03:00,
2013-10-28 10:08:00,63.9,58.0,30.23,ENE,68,0.0,0.9,81,0.00,,,0.00,WUHU216HW,2013-10-28 14:08:00,
2013-10-28 10:13:00,64.6,58.3,30.23,West,270,0.0,1.3,80,0.00,,,0.00,WUHU216HW,2013-10-28 14:13:00,
2013-10-28 10:18:00,65.9,59.6,30.23,NNW,338,0.0,1.3,80,0.00,,,0.00,WUHU216HW,2013-10-28 14:18:00,
2013-10-28 10:23:00,66.6,59.6,30.23,ENE,68,0.0,0.9,78,0.00,,,0.00,WUHU216HW,2013-10-28 14:23:00,
2013-10-28 10:28:00,67.3,59.9,30.23,North,0,0.0,0.9,77,0.00,,,0.00,WUHU216HW,2013-10-28 14:28:00,
2013-10-28 10:33:00,67.3,59.5,30.23,North,0,0.0,0.4,76,0.00,,,0.00,WUHU216HW,2013-10-28 14:33:00,
2013-10-28 10:38:00,67.5,59.7,30.23,North,0,0.0,0.0,76,0.00,,,0.00,WUHU216HW,2013-10-28 14:38:00,
2013-10-28 10:43:00,68.2,60.0,30.23,North,0,0.4,0.7,75,0.00,,,0.00,WUHU216HW,2013-10-28 14:43:00,
2013-10-28 10:48:00,69.8,61.1,30.24,North,0,0.0,1.1,74,0.00,,,0.00,WUHU216HW,2013-10-28 14:48:00,
2013-10-28 10:53:00,73.4,64.7,30.24,NNW,338,1.1,1.1,74,0.00,,,0.00,WUHU216HW,2013-10-28 14:53:00,
2013-10-28 10:58:00,77.4,61.5,30.24,North,0,1.8,1.8,58,0.00,,,0.00,WUHU216HW,2013-10-28 14:58:00,
2013-10-28 11:03:00,78.8,65.2,30.24,NNW,338,0.7,1.8,63,0.00,,,0.00,WUHU216HW,2013-10-28 15:03:00,
2013-10-28 11:08:00,81.0,65.4,30.24,ENE,68,1.1,1.1,59,0.00,,,0.00,WUHU216HW,2013-10-28 15:08:00,
2013-10-28 11:13:00,81.4,63.5,30.24,North,0,1.3,1.8,55,0.00,,,0.00,WUHU216HW,2013-10-28 15:13:00,
2013-10-28 11:18:00,79.9,62.8,30.24,North,0,0.0,1.8,56,0.00,,,0.00,WUHU216HW,2013-10-28 15:18:00,
2013-10-28 11:23:00,80.3,63.6,30.24,North,0,0.0,1.6,57,0.00,,,0.00,WUHU216HW,2013-10-28 15:23:00,
2013-10-28 11:28:00,82.8,64.9,30.24,West,270,0.0,1.1,55,0.00,,,0.00,WUHU216HW,2013-10-28 15:28:00,
2013-10-28 11:33:00,84.6,66.2,30.24,WSW,248,1.8,1.8,54,0.00,,,0.00,WUHU216HW,2013-10-28 15:33:00,
2013-10-28 11:38:00,85.5,65.3,30.24,North,0,0.9,1.8,51,0.00,,,0.00,WUHU216HW,2013-10-28 15:38:00,
2013-10-28 11:43:00,86.4,64.5,30.24,North,0,1.1,1.8,48,0.00,,,0.00,WUHU216HW,2013-10-28 15:43:00,
2013-10-28 11:48:00,86.6,65.2,30.24,North,0,1.6,1.8,49,0.00,,,0.00,WUHU216HW,2013-10-28 15:48:00,
2013-10-28 11:53:00,87.3,64.0,30.24,East,90,0.9,1.8,46,0.00,,,0.00,WUHU216HW,2013-10-28 15:53:00,
2013-10-28 11:58:00,86.9,64.3,30.24,NE,45,1.8,2.0,47,0.00,,,0.00,WUHU216HW,2013-10-28 15:58:00,
2013-10-28 12:03:00,87.1,63.2,30.23,NNE,23,0.4,2.0,45,0.00,,,0.00,WUHU216HW,2013-10-28 16:03:00,
2013-10-28 12:08:00,87.5,63.5,30.24,SSE,158,0.0,1.6,45,0.00,,,0.00,WUHU216HW,2013-10-28 16:08:00,
2013-10-28 12:13:00,87.8,63.2,30.24,ENE,68,2.7,2.7,44,0.00,,,0.00,WUHU216HW,2013-10-28 16:13:00,
2013-10-28 12:18:00,88.2,62.2,30.24,ENE,68,1.8,2.7,42,0.00,,,0.00,WUHU216HW,2013-10-28 16:18:00,
2013-10-28 12:23:00,88.4,62.4,30.24,SE,135,2.7,2.7,42,0.00,,,0.00,WUHU216HW,2013-10-28 16:23:00,
2013-10-28 12:28:00,88.0,62.1,30.24,South,180,2.9,2.9,42,0.00,,,0.00,WUHU216HW,2013-10-28 16:28:00,
2013-10-28 12:33:00,86.8,58.9,30.23,NNE,23,1.1,2.9,39,0.00,,,0.00,WUHU216HW,2013-10-28 16:33:00,
2013-10-28 12:38:00,85.9,60.1,30.23,North,0,0.9,2.2,42,0.00,,,0.00,WUHU216HW,2013-10-28 16:38:00,
2013-10-28 12:43:00,86.8,61.6,30.23,North,0,0.2,1.6,43,0.00,,,0.00,WUHU216HW,2013-10-28 16:43:00,
2013-10-28 12:48:00,87.1,61.9,30.23,North,0,0.9,2.2,43,0.00,,,0.00,WUHU216HW,2013-10-28 16:48:00,
2013-10-28 12:53:00,86.4,60.0,30.23,South,180,1.8,3.8,41,0.00,,,0.00,WUHU216HW,2013-10-28 16:53:00,
2013-10-28 12:58:00,84.6,59.1,30.23,SSE,158,2.5,3.8,42,0.00,,,0.00,WUHU216HW,2013-10-28 16:58:00,
2013-10-28 13:03:00,83.2,58.3,30.22,ENE,68,1.1,2.5,43,0.00,,,0.00,WUHU216HW,2013-10-28 17:03:00,
2013-10-28 13:08:00,82.4,58.2,30.22,SE,135,2.2,2.7,44,0.00,,,0.00,WUHU216HW,2013-10-28 17:08:00,
2013-10-28 13:13:00,81.5,57.4,30.22,ENE,68,1.1,3.4,44,0.00,,,0.00,WUHU216HW,2013-10-28 17:13:00,
2013-10-28 13:18:00,81.2,57.7,30.21,ENE,68,0.2,3.4,45,0.00,,,0.00,WUHU216HW,2013-10-28 17:18:00,
2013-10-28 13:23:00,80.6,56.6,30.21,NE,45,1.1,3.4,44,0.00,,,0.00,WUHU216HW,2013-10-28 17:23:00,
2013-10-28 13:28:00,79.9,56.6,30.21,South,180,1.8,3.4,45,0.00,,,0.00,WUHU216HW,2013-10-28 17:28:00,
2013-10-28 13:33:00,79.6,56.3,30.21,ESE,113,1.3,2.5,45,0.00,,,0.00,WUHU216HW,2013-10-28 17:33:00,
2013-10-28 13:38:00,79.6,57.5,30.21,ENE,68,1.8,2.5,47,0.00,,,0.00,WUHU216HW,2013-10-28 17:38:00,
2013-10-28 13:43:00,79.9,57.8,30.20,ENE,68,1.8,2.2,47,0.00,,,0.00,WUHU216HW,2013-10-28 17:43:00,
2013-10-28 13:48:00,79.6,57.5,30.20,East,90,0.7,2.9,47,0.00,,,0.00,WUHU216HW,2013-10-28 17:48:00,
2013-10-28 13:53:00,79.2,57.2,30.20,SW,225,1.8,4.0,47,0.00,,,0.00,WUHU216HW,2013-10-28 17:53:00,
2013-10-28 13:58:00,79.0,57.6,30.19,ENE,68,0.4,4.0,48,0.00,,,0.00,WUHU216HW,2013-10-28 17:58:00,
2013-10-28 14:03:00,79.0,57.6,30.19,East,90,2.0,2.5,48,0.00,,,0.00,WUHU216HW,2013-10-28 18:03:00,
2013-10-28 14:08:00,78.7,56.7,30.19,ENE,68,2.2,2.2,47,0.00,,,0.00,WUHU216HW,2013-10-28 18:08:00,
2013-10-28 14:13:00,78.8,58.1,30.18,SSW,203,2.5,2.5,49,0.00,,,0.00,WUHU216HW,2013-10-28 18:13:00,
2013-10-28 14:18:00,78.5,56.5,30.18,NE,45,0.4,2.5,47,0.00,,,0.00,WUHU216HW,2013-10-28 18:18:00,
2013-10-28 14:23:00,78.5,57.2,30.18,SE,135,2.9,2.9,48,0.00,,,0.00,WUHU216HW,2013-10-28 18:23:00,
2013-10-28 14:28:00,78.8,58.1,30.18,East,90,1.6,2.9,49,0.00,,,0.00,WUHU216HW,2013-10-28 18:28:00,
2013-10-28 14:33:00,79.0,58.2,30.18,North,0,2.0,2.5,49,0.00,,,0.00,WUHU216HW,2013-10-28 18:33:00,
2013-10-28 14:38:00,79.6,58.7,30.18,North,0,1.1,2.5,49,0.00,,,0.00,WUHU216HW,2013-10-28 18:38:00,
2013-10-28 14:43:00,79.9,58.4,30.18,NNW,338,1.8,2.5,48,0.00,,,0.00,WUHU216HW,2013-10-28 18:43:00,
2013-10-28 14:48:00,80.1,58.6,30.18,NNW,338,1.1,2.5,48,0.00,,,0.00,WUHU216HW,2013-10-28 18:48:00,
2013-10-28 14:53:00,80.3,58.1,30.18,ENE,68,1.8,2.5,47,0.00,,,0.00,WUHU216HW,2013-10-28 18:53:00,
2013-10-28 14:58:00,80.3,58.1,30.18,WSW,248,4.0,4.0,47,0.00,,,0.00,WUHU216HW,2013-10-28 18:58:00,
2013-10-28 15:03:00,80.1,57.3,30.18,SW,225,2.0,4.0,46,0.00,,,0.00,WUHU216HW,2013-10-28 19:03:00,
2013-10-28 15:08:00,80.1,57.3,30.18,SE,135,0.7,3.1,46,0.00,,,0.00,WUHU216HW,2013-10-28 19:08:00,
2013-10-28 15:13:00,79.9,57.8,30.18,North,0,1.1,3.4,47,0.00,,,0.00,WUHU216HW,2013-10-28 19:13:00,
2013-10-28 15:18:00,80.6,58.5,30.17,North,0,1.8,3.4,47,0.00,,,0.00,WUHU216HW,2013-10-28 19:18:00,
2013-10-28 15:23:00,81.0,58.1,30.18,ENE,68,0.4,2.9,46,0.00,,,0.00,WUHU216HW,2013-10-28 19:23:00,
2013-10-28 15:28:00,79.9,57.8,30.17,NE,45,1.1,1.8,47,0.00,,,0.00,WUHU216HW,2013-10-28 19:28:00,
2013-10-28 15:33:00,79.4,58.0,30.17,NE,45,1.1,1.1,48,0.00,,,0.00,WUHU216HW,2013-10-28 19:33:00,
2013-10-28 15:38:00,79.0,57.6,30.17,SSW,203,2.0,2.2,48,0.00,,,0.00,WUHU216HW,2013-10-28 19:38:00,
2013-10-28 15:43:00,78.7,56.7,30.17,WSW,248,0.9,2.2,47,0.00,,,0.00,WUHU216HW,2013-10-28 19:43:00,
2013-10-28 15:48:00,78.8,58.1,30.17,North,0,1.1,1.8,49,0.00,,,0.00,WUHU216HW,2013-10-28 19:48:00,
2013-10-28 15:53:00,78.8,58.1,30.17,North,0,1.8,2.2,49,0.00,,,0.00,WUHU216HW,2013-10-28 19:53:00,
2013-10-28 15:58:00,78.8,57.4,30.17,ENE,68,1.1,2.2,48,0.00,,,0.00,WUHU216HW,2013-10-28 19:58:00,
2013-10-28 16:03:00,78.8,58.1,30.17,SSE,158,3.6,3.6,49,0.00,,,0.00,WUHU216HW,2013-10-28 20:03:00,
2013-10-28 16:08:00,78.5,57.2,30.17,SSE,158,2.0,3.6,48,0.00,,,0.00,WUHU216HW,2013-10-28 20:08:00,
2013-10-28 16:13:00,78.1,57.4,30.17,North,0,1.8,3.1,49,0.00,,,0.00,WUHU216HW,2013-10-28 20:13:00,
2013-10-28 16:18:00,77.9,57.2,30.17,ENE,68,1.8,3.6,49,0.00,,,0.00,WUHU216HW,2013-10-28 20:18:00,
2013-10-28 16:23:00,78.1,57.4,30.17,NE,45,1.8,3.6,49,0.00,,,0.00,WUHU216HW,2013-10-28 20:23:00,
2013-10-28 16:28:00,77.9,57.2,30.17,ENE,68,2.5,2.5,49,0.00,,,0.00,WUHU216HW,2013-10-28 20:28:00,
2013-10-28 16:33:00,77.8,57.1,30.17,NE,45,0.2,2.5,49,0.00,,,0.00,WUHU216HW,2013-10-28 20:33:00,
2013-10-28 16:38:00,77.8,57.7,30.16,North,0,0.4,2.0,50,0.00,,,0.00,WUHU216HW,2013-10-28 20:38:00,
2013-10-28 16:43:00,77.8,57.7,30.16,ENE,68,1.3,2.0,50,0.00,,,0.00,WUHU216HW,2013-10-28 20:43:00,
2013-10-28 16:48:00,77.4,57.4,30.17,North,0,1.8,2.0,50,0.00,,,0.00,WUHU216HW,2013-10-28 20:48:00,
2013-10-28 16:53:00,77.4,57.9,30.17,North,0,1.1,1.8,51,0.00,,,0.00,WUHU216HW,2013-10-28 20:53:00,
2013-10-28 16:58:00,77.2,57.7,30.17,NNE,23,1.8,1.8,51,0.00,,,0.00,WUHU216HW,2013-10-28 20:58:00,
2013-10-28 17:03:00,77.0,57.6,30.17,NE,45,0.9,1.8,51,0.00,,,0.00,WUHU216HW,2013-10-28 21:03:00,
2013-10-28 17:08:00,76.9,57.4,30.17,NE,45,0.7,1.6,51,0.00,,,0.00,WUHU216HW,2013-10-28 21:08:00,
2013-10-28 17:13:00,76.9,57.4,30.17,NNE,23,0.4,1.6,51,0.00,,,0.00,WUHU216HW,2013-10-28 21:13:00,
2013-10-28 17:18:00,76.7,57.8,30.17,South,180,0.9,1.3,52,0.00,,,0.00,WUHU216HW,2013-10-28 21:18:00,
2013-10-28 17:23:00,76.7,57.2,30.17,North,0,0.7,1.3,51,0.00,,,0.00,WUHU216HW,2013-10-28 21:23:00,
2013-10-28 17:28:00,76.3,57.4,30.17,NE,45,1.3,1.8,52,0.00,,,0.00,WUHU216HW,2013-10-28 21:28:00,
2013-10-28 17:33:00,76.1,57.2,30.17,NNE,23,0.4,1.8,52,0.00,,,0.00,WUHU216HW,2013-10-28 21:33:00,
2013-10-28 17:38:00,76.0,57.6,30.18,NNE,23,1.1,1.1,53,0.00,,,0.00,WUHU216HW,2013-10-28 21:38:00,
2013-10-28 17:43:00,75.8,57.4,30.18,NE,45,0.7,1.3,53,0.00,,,0.00,WUHU216HW,2013-10-28 21:43:00,
2013-10-28 17:48:00,75.4,57.6,30.18,NE,45,0.4,1.3,54,0.00,,,0.00,WUHU216HW,2013-10-28 21:48:00,
2013-10-28 17:53:00,75.2,57.4,30.18,NE,45,0.0,0.9,54,0.00,,,0.00,WUHU216HW,2013-10-28 21:53:00,
2013-10-28 17:59:00,75.2,57.4,30.18,NE,45,0.0,0.7,54,0.00,,,0.00,WUHU216HW,2013-10-28 21:59:00,
2013-10-28 18:04:00,75.1,57.8,30.18,NE,45,0.4,0.7,55,0.00,,,0.00,WUHU216HW,2013-10-28 22:04:00,
2013-10-28 18:09:00,74.7,57.4,30.18,NE,45,0.4,0.4,55,0.00,,,0.00,WUHU216HW,2013-10-28 22:09:00,
2013-10-28 18:14:00,74.5,57.8,30.18,NE,45,0.0,0.4,56,0.00,,,0.00,WUHU216HW,2013-10-28 22:14:00,
2013-10-28 18:19:00,74.2,57.9,30.18,NE,45,0.4,0.4,57,0.00,,,0.00,WUHU216HW,2013-10-28 22:19:00,
2013-10-28 18:24:00,73.6,57.9,30.18,NE,45,0.4,0.9,58,0.00,,,0.00,WUHU216HW,2013-10-28 22:24:00,
2013-10-28 18:29:00,73.1,57.9,30.18,NE,45,0.4,1.1,59,0.00,,,0.00,WUHU216HW,2013-10-28 22:29:00,
2013-10-28 18:34:00,72.5,57.9,30.18,NE,45,0.0,1.1,60,0.00,,,0.00,WUHU216HW,2013-10-28 22:34:00,
2013-10-28 18:39:00,72.0,57.8,30.18,NE,45,0.0,0.7,61,0.00,,,0.00,WUHU216HW,2013-10-28 22:39:00,
2013-10-28 18:44:00,71.6,58.0,30.18,NE,45,0.0,0.0,62,0.00,,,0.00,WUHU216HW,2013-10-28 22:44:00,
2013-10-28 18:49:00,71.1,57.9,30.18,NE,45,0.0,0.0,63,0.00,,,0.00,WUHU216HW,2013-10-28 22:49:00,
2013-10-28 18:54:00,70.6,57.3,30.18,NE,45,0.4,1.1,63,0.00,,,0.00,WUHU216HW,2013-10-28 22:54:00,
2013-10-28 18:59:00,70.2,57.1,30.18,NE,45,0.0,1.1,63,0.00,,,0.00,WUHU216HW,2013-10-28 22:59:00,
2013-10-28 19:04:00,69.8,57.1,30.18,NE,45,0.0,0.4,64,0.00,,,0.00,WUHU216HW,2013-10-28 23:04:00,
2013-10-28 19:09:00,69.7,56.9,30.19,NE,45,0.0,0.0,64,0.00,,,0.00,WUHU216HW,2013-10-28 23:09:00,
2013-10-28 19:14:00,69.3,57.0,30.20,SSE,158,0.0,0.7,65,0.00,,,0.00,WUHU216HW,2013-10-28 23:14:00,
2013-10-28 19:19:00,68.8,56.5,30.19,SSE,158,0.0,0.7,65,0.00,,,0.00,WUHU216HW,2013-10-28 23:19:00,
2013-10-28 19:24:00,68.6,56.7,30.20,SSE,158,0.0,0.0,66,0.00,,,0.00,WUHU216HW,2013-10-28 23:24:00,
2013-10-28 19:29:00,68.4,56.6,30.20,SSE,158,0.0,0.0,66,0.00,,,0.00,WUHU216HW,2013-10-28 23:29:00,
2013-10-28 19:34:00,68.0,56.7,30.20,SSE,158,0.0,0.0,67,0.00,,,0.00,WUHU216HW,2013-10-28 23:34:00,
2013-10-28 19:39:00,67.9,56.9,30.20,SSE,158,0.0,0.0,68,0.00,,,0.00,WUHU216HW,2013-10-28 23:39:00,
2013-10-28 19:44:00,67.5,56.6,30.20,SSE,158,0.0,0.0,68,0.00,,,0.00,WUHU216HW,2013-10-28 23:44:00,
2013-10-28 19:49:00,67.3,56.8,30.20,SSE,158,0.0,0.0,69,0.00,,,0.00,WUHU216HW,2013-10-28 23:49:00,
2013-10-28 19:54:00,67.1,56.6,30.20,SSE,158,0.0,0.0,69,0.00,,,0.00,WUHU216HW,2013-10-28 23:54:00,
2013-10-28 19:59:00,67.0,56.4,30.20,SSE,158,0.0,0.0,69,0.00,,,0.00,WUHU216HW,2013-10-28 23:59:00,
2013-10-28 20:04:00,66.8,56.7,30.20,East,90,0.0,0.4,70,0.00,,,0.00,WUHU216HW,2013-10-29 00:04:00,
2013-10-28 20:09:00,66.6,56.1,30.20,East,90,0.0,0.7,69,0.00,,,0.00,WUHU216HW,2013-10-29 00:09:00,
2013-10-28 20:14:00,66.6,56.1,30.20,East,90,0.0,0.7,69,0.00,,,0.00,WUHU216HW,2013-10-29 00:14:00,
2013-10-28 20:19:00,66.6,56.1,30.21,East,90,0.0,0.0,69,0.00,,,0.00,WUHU216HW,2013-10-29 00:19:00,
2013-10-28 20:24:00,66.4,55.9,30.21,East,90,0.0,0.0,69,0.00,,,0.00,WUHU216HW,2013-10-29 00:24:00,
2013-10-28 20:29:00,66.2,55.7,30.21,East,90,0.0,0.0,69,0.00,,,0.00,WUHU216HW,2013-10-29 00:29:00,
2013-10-28 20:34:00,66.1,56.0,30.21,East,90,0.0,0.0,70,0.00,,,0.00,WUHU216HW,2013-10-29 00:34:00,
2013-10-28 20:39:00,65.7,55.7,30.21,East,90,0.0,0.0,70,0.00,,,0.00,WUHU216HW,2013-10-29 00:39:00,
2013-10-28 20:44:00,65.5,55.5,30.21,East,90,0.0,0.0,70,0.00,,,0.00,WUHU216HW,2013-10-29 00:44:00,
2013-10-28 20:49:00,65.3,55.4,30.22,East,90,0.0,0.0,70,0.00,,,0.00,WUHU216HW,2013-10-29 00:49:00,
2013-10-28 20:54:00,65.2,55.5,30.22,East,90,0.0,0.0,71,0.00,,,0.00,WUHU216HW,2013-10-29 00:54:00,
2013-10-28 20:59:00,64.8,55.3,30.22,East,90,0.0,0.2,71,0.00,,,0.00,WUHU216HW,2013-10-29 00:59:00,
2013-10-28 21:04:00,64.4,55.3,30.21,East,90,0.4,1.1,72,0.00,,,0.00,WUHU216HW,2013-10-29 01:04:00,
2013-10-28 21:09:00,64.3,55.4,30.22,ENE,68,0.0,1.1,73,0.00,,,0.00,WUHU216HW,2013-10-29 01:09:00,
2013-10-28 21:14:00,64.1,55.3,30.22,ENE,68,0.0,1.1,73,0.00,,,0.00,WUHU216HW,2013-10-29 01:14:00,
2013-10-28 21:19:00,64.1,55.6,30.22,ENE,68,0.0,1.1,74,0.00,,,0.00,WUHU216HW,2013-10-29 01:19:00,
2013-10-28 21:24:00,63.9,55.4,30.22,ENE,68,0.0,0.0,74,0.00,,,0.00,WUHU216HW,2013-10-29 01:24:00,
2013-10-28 21:29:00,63.7,55.3,30.22,ENE,68,0.0,0.0,74,0.00,,,0.00,WUHU216HW,2013-10-29 01:29:00,
2013-10-28 21:34:00,63.5,55.1,30.22,ENE,68,0.0,0.0,74,0.00,,,0.00,WUHU216HW,2013-10-29 01:34:00,
2013-10-28 21:39:00,63.4,54.9,30.23,ENE,68,0.0,0.0,74,0.00,,,0.00,WUHU216HW,2013-10-29 01:39:00,
2013-10-28 21:44:00,63.2,55.1,30.23,ENE,68,0.0,0.0,75,0.00,,,0.00,WUHU216HW,2013-10-29 01:44:00,
2013-10-28 21:49:00,63.0,54.9,30.23,ENE,68,0.0,0.0,75,0.00,,,0.00,WUHU216HW,2013-10-29 01:49:00,
2013-10-28 21:54:00,62.8,55.1,30.23,ENE,68,0.0,0.0,76,0.00,,,0.00,WUHU216HW,2013-10-29 01:54:00,
2013-10-28 21:59:00,62.6,54.5,30.23,ENE,68,0.2,0.2,75,0.00,,,0.00,WUHU216HW,2013-10-29 01:59:00,
2013-10-28 22:04:00,62.5,54.7,30.23,ENE,68,0.0,0.4,76,0.00,,,0.00,WUHU216HW,2013-10-29 02:04:00,
2013-10-28 22:09:00,62.3,54.5,30.23,ENE,68,0.0,0.4,76,0.00,,,0.00,WUHU216HW,2013-10-29 02:09:00,
2013-10-28 22:14:00,62.3,54.5,30.23,ENE,68,0.0,0.0,76,0.00,,,0.00,WUHU216HW,2013-10-29 02:14:00,
2013-10-28 22:19:00,62.3,54.5,30.23,ENE,68,0.0,0.0,76,0.00,,,0.00,WUHU216HW,2013-10-29 02:19:00,
2013-10-28 22:24:00,62.1,54.5,30.23,ENE,68,0.0,0.0,76,0.00,,,0.00,WUHU216HW,2013-10-29 02:24:00,
2013-10-28 22:29:00,61.9,54.3,30.23,ENE,68,0.0,0.0,76,0.00,,,0.00,WUHU216HW,2013-10-29 02:29:00,
2013-10-28 22:34:00,61.6,54.3,30.24,ENE,68,0.0,0.0,77,0.00,,,0.00,WUHU216HW,2013-10-29 02:34:00,
2013-10-28 22:39:00,61.4,54.5,30.24,ENE,68,0.0,0.0,78,0.00,,,0.00,WUHU216HW,2013-10-29 02:39:00,
2013-10-28 22:44:00,61.2,54.4,30.24,ENE,68,0.0,0.0,78,0.00,,,0.00,WUHU216HW,2013-10-29 02:44:00,
2013-10-28 22:49:00,61.0,54.2,30.24,ENE,68,0.0,0.0,78,0.00,,,0.00,WUHU216HW,2013-10-29 02:49:00,
2013-10-28 22:54:00,60.8,54.4,30.24,NE,45,0.0,0.0,79,0.00,,,0.00,WUHU216HW,2013-10-29 02:54:00,
2013-10-28 22:59:00,60.8,54.4,30.24,NW,315,0.2,0.2,79,0.00,,,0.00,WUHU216HW,2013-10-29 02:59:00,
2013-10-28 23:04:00,60.8,54.4,30.25,NW,315,0.0,0.2,79,0.00,,,0.00,WUHU216HW,2013-10-29 03:04:00,
2013-10-28 23:09:00,60.7,54.2,30.25,NW,315,0.0,0.0,79,0.00,,,0.00,WUHU216HW,2013-10-29 03:09:00,
2013-10-28 23:14:00,60.5,54.0,30.25,WNW,293,0.4,0.7,79,0.00,,,0.00,WUHU216HW,2013-10-29 03:14:00,
2013-10-28 23:19:00,60.3,53.8,30.25,WNW,293,0.0,0.7,79,0.00,,,0.00,WUHU216HW,2013-10-29 03:19:00,
2013-10-28 23:24:00,60.1,53.6,30.25,WNW,293,0.0,0.2,79,0.00,,,0.00,WUHU216HW,2013-10-29 03:24:00,
2013-10-28 23:29:00,59.8,53.6,30.25,WNW,293,0.0,0.0,80,0.00,,,0.00,WUHU216HW,2013-10-29 03:29:00,
2013-10-28 23:34:00,59.6,53.5,30.25,WNW,293,0.0,0.0,80,0.00,,,0.00,WUHU216HW,2013-10-29 03:34:00,
2013-10-28 23:39:00,59.4,53.3,30.25,WNW,293,0.0,0.0,80,0.00,,,0.00,WUHU216HW,2013-10-29 03:39:00,
2013-10-28 23:44:00,59.4,53.7,30.25,WNW,293,0.0,0.0,81,0.00,,,0.00,WUHU216HW,2013-10-29 03:44:00,
2013-10-28 23:49:00,59.4,53.7,30.25,WNW,293,0.0,0.0,81,0.00,,,0.00,WUHU216HW,2013-10-29 03:49:00,
2013-10-28 23:54:00,59.2,53.5,30.25,WNW,293,0.0,0.0,81,0.00,,,0.00,WUHU216HW,2013-10-29 03:54:00,
2013-10-28 23:59:00,59.0,53.3,30.25,WNW,293,0.0,0.0,81,0.00,,,0.00,WUHU216HW,2013-10-29 03:59:00,